Queralbs (Ripollès)





Hora UTC 03:25
Temperatura 1.7 ºC
Humitat 36.0 %
Pressió 1025.5 hPa
Pluja 0.0 mm
Velocitat vent 1.6 km/h
Direcció vent NE
Radiació solar 0.0 W/m²

Dades diàries 2023-02-06



Hora UTC (hivern +1h; estiu +2h)
Temperatura (ºC) Humitat (%) Pressió (hPa) Velocitat vent (km/h) Precipitació (mm) Radiació solar (W/m²)
Hora UTC Aire Humitat Pressió Vel. Dir. Vel. Max Dir. Intent. màx 5 min. Rad. Sol.
00:05 2.6 23.0 1026.1 1.6 SW 1.6 0.0 0.0
00:10 2.5 23.0 1025.7 0.0 SW 4.8 0.0 0.0
00:15 2.3 24.0 1025.6 0.0 SW 3.2 0.0 0.0
00:20 2.1 24.0 1025.4 0.0 SW 3.2 0.0 0.0
00:25 1.9 24.0 1025.3 0.0 SW 1.6 0.0 0.0
00:30 1.9 23.0 1025.2 0.0 SW 0.0 0.0 0.0
00:35 1.9 24.0 1025.1 1.6 SW 4.8 0.0 0.0
00:40 1.8 24.0 1025.2 1.6 SW 4.8 0.0 0.0
00:45 1.6 26.0 1025.0 1.6 SW 8.0 0.0 0.0
00:50 1.4 29.0 1025.1 0.0 SW 8.0 0.0 0.0
00:55 1.4 32.0 1025.3 0.0 SW 4.8 0.0 0.0
01:00 1.4 33.0 1025.2 0.0 SW 4.8 0.0 0.0
01:05 1.3 36.0 1025.1 0.0 SW 4.8 0.0 0.0
01:10 0.9 33.0 1024.9 0.0 SW 1.6 0.0 0.0
01:15 0.7 34.0 1024.9 0.0 SW 1.6 0.0 0.0
01:20 0.6 36.0 1025.0 0.0 SW 1.6 0.0 0.0
01:25 0.4 36.0 1025.0 0.0 SW 1.6 0.0 0.0
01:30 0.4 37.0 1024.8 0.0 SW 6.4 0.0 0.0
01:35 0.5 38.0 1024.7 0.0 SW 6.4 0.0 0.0
01:40 0.5 37.0 1024.7 0.0 SW 3.2 0.0 0.0
01:45 0.5 38.0 1024.6 0.0 SW 0.0 0.0 0.0
01:50 0.4 38.0 1024.9 6.4 NNW 8.0 0.0 0.0
01:55 0.3 37.0 1024.9 1.6 NNW 8.0 0.0 0.0
02:00 0.7 35.0 1024.8 3.2 NE 17.7 0.0 0.0
02:05 1.4 36.0 1025.0 3.2 NE 20.9 0.0 0.0
02:10 2.1 36.0 1025.1 14.5 NNE 27.4 0.0 0.0
02:15 2.2 35.0 1025.2 8.0 N 27.4 0.0 0.0
02:20 2.3 35.0 1025.1 4.8 N 17.7 0.0 0.0
02:25 2.3 33.0 1025.3 4.8 NE 20.9 0.0 0.0
02:30 2.6 33.0 1025.4 16.1 SW 25.7 0.0 0.0
02:35 2.7 33.0 1025.4 19.3 NNE 25.7 0.0 0.0
02:40 2.6 33.0 1025.3 0.0 NNE 24.1 0.0 0.0
02:45 2.4 33.0 1025.6 0.0 WNW 19.3 0.0 0.0
02:50 2.3 35.0 1025.3 1.6 N 19.3 0.0 0.0
02:55 2.3 34.0 1025.3 0.0 NW 11.3 0.0 0.0
03:00 2.1 35.0 1025.4 0.0 NE 12.9 0.0 0.0
03:05 2.0 35.0 1025.1 3.2 NW 12.9 0.0 0.0
03:10 1.9 36.0 1025.2 6.4 NE 8.0 0.0 0.0
03:15 1.9 35.0 1025.1 3.2 NE 11.3 0.0 0.0
03:20 1.9 36.0 1025.3 0.0 NE 9.7 0.0 0.0
03:25 1.7 36.0 1025.5 1.6 NE 3.2 0.0 0.0
Màxima 4.8 38.0 1026.1 19.3 NNE 27.4 0.0 0.0
Mínima 0.3 23.0 1024.6
Total 0.0